Time,TemperatureF,DewpointF,PressureIn,WindDirection,WindDirectionDegrees,WindSpeedMPH,WindSpeedGustMPH,Humidity,HourlyPrecipIn,Conditions,Clouds,dailyrainin,SoftwareType,DateUTC
2013-01-13 00:00:00,38.0,38.0,29.71,SE,135,0.0,1.0,98,0.00,,,0.00,Rainwise IP-100,2013-01-13 05:00:00,
2013-01-13 00:01:00,39.0,38.0,29.72,SE,135,0.0,1.0,96,0.00,,,0.00,Rainwise IP-100,2013-01-13 05:01:00,
2013-01-13 00:06:00,39.0,38.0,29.72,SE,135,0.0,1.0,97,0.00,,,0.00,Rainwise IP-100,2013-01-13 05:06:00,
2013-01-13 00:11:00,39.0,38.0,29.72,SE,135,0.0,0.0,97,0.00,,,0.00,Rainwise IP-100,2013-01-13 05:11:00,
2013-01-13 00:16:00,39.0,38.0,29.72,SE,135,0.0,0.0,97,0.00,,,0.00,Rainwise IP-100,2013-01-13 05:16:00,
2013-01-13 00:21:00,40.0,39.0,29.73,SE,135,0.0,0.0,97,0.00,,,0.00,Rainwise IP-100,2013-01-13 05:21:00,
2013-01-13 00:26:00,40.0,40.0,29.73,SE,135,0.0,0.0,98,0.00,,,0.00,Rainwise IP-100,2013-01-13 05:26:00,
2013-01-13 00:31:00,40.0,39.0,29.73,SE,135,0.0,0.0,97,0.00,,,0.00,Rainwise IP-100,2013-01-13 05:31:00,
2013-01-13 00:36:00,39.0,39.0,29.73,SE,135,0.0,0.0,98,0.00,,,0.00,Rainwise IP-100,2013-01-13 05:36:00,
2013-01-13 00:41:00,39.0,39.0,29.73,West,270,0.0,2.0,98,0.00,,,0.00,Rainwise IP-100,2013-01-13 05:41:00,
2013-01-13 00:46:00,39.0,39.0,29.73,West,270,0.0,3.0,99,0.00,,,0.00,Rainwise IP-100,2013-01-13 05:46:00,
2013-01-13 00:51:00,38.0,38.0,29.73,West,270,0.0,0.0,100,0.00,,,0.00,Rainwise IP-100,2013-01-13 05:51:00,
2013-01-13 00:56:00,38.0,38.0,29.73,West,270,0.0,0.0,100,0.00,,,0.00,Rainwise IP-100,2013-01-13 05:56:00,
2013-01-13 01:01:00,38.0,38.0,29.72,West,270,0.0,0.0,100,0.00,,,0.00,Rainwise IP-100,2013-01-13 06:01:00,
2013-01-13 01:06:00,37.0,37.0,29.72,West,270,0.0,0.0,100,0.00,,,0.00,Rainwise IP-100,2013-01-13 06:06:00,
2013-01-13 01:11:00,37.0,37.0,29.72,West,270,0.0,0.0,100,0.00,,,0.00,Rainwise IP-100,2013-01-13 06:11:00,
2013-01-13 01:16:00,38.0,38.0,29.72,West,270,0.0,0.0,100,0.00,,,0.00,Rainwise IP-100,2013-01-13 06:16:00,
2013-01-13 01:21:00,38.0,38.0,29.72,West,270,0.0,0.0,99,0.00,,,0.00,Rainwise IP-100,2013-01-13 06:21:00,
2013-01-13 01:26:00,39.0,39.0,29.72,West,270,0.0,0.0,99,0.00,,,0.00,Rainwise IP-100,2013-01-13 06:26:00,
2013-01-13 01:31:00,39.0,39.0,29.72,West,270,0.0,0.0,98,0.00,,,0.00,Rainwise IP-100,2013-01-13 06:31:00,
2013-01-13 01:36:00,39.0,39.0,29.72,West,270,0.0,2.0,99,0.00,,,0.00,Rainwise IP-100,2013-01-13 06:36:00,
2013-01-13 01:41:00,39.0,39.0,29.73,West,270,0.0,3.0,99,0.00,,,0.00,Rainwise IP-100,2013-01-13 06:41:00,
2013-01-13 01:46:00,39.0,39.0,29.73,West,270,3.0,3.0,99,0.00,,,0.00,Rainwise IP-100,2013-01-13 06:46:00,
2013-01-13 01:51:00,39.0,39.0,29.72,West,270,2.0,3.0,99,0.00,,,0.00,Rainwise IP-100,2013-01-13 06:51:00,
2013-01-13 01:56:00,39.0,39.0,29.72,West,270,3.0,3.0,100,0.00,,,0.00,Rainwise IP-100,2013-01-13 06:56:00,
2013-01-13 02:01:00,40.0,40.0,29.72,West,270,0.0,3.0,99,0.00,,,0.00,Rainwise IP-100,2013-01-13 07:01:00,
2013-01-13 02:06:00,40.0,40.0,29.72,West,270,0.0,0.0,99,0.00,,,0.00,Rainwise IP-100,2013-01-13 07:06:00,
2013-01-13 02:11:00,40.0,40.0,29.73,ESE,112,3.0,4.0,99,0.00,,,0.00,Rainwise IP-100,2013-01-13 07:11:00,
2013-01-13 02:16:00,39.0,39.0,29.73,West,270,0.0,4.0,100,0.00,,,0.00,Rainwise IP-100,2013-01-13 07:16:00,
2013-01-13 02:21:00,39.0,39.0,29.73,West,270,4.0,5.0,100,0.00,,,0.00,Rainwise IP-100,2013-01-13 07:21:00,
2013-01-13 02:26:00,38.0,38.0,29.73,West,270,0.0,5.0,100,0.00,,,0.00,Rainwise IP-100,2013-01-13 07:26:00,
2013-01-13 02:31:00,38.0,38.0,29.73,West,270,0.0,2.0,100,0.00,,,0.00,Rainwise IP-100,2013-01-13 07:31:00,
2013-01-13 02:36:00,39.0,39.0,29.73,West,270,0.0,1.0,100,0.00,,,0.00,Rainwise IP-100,2013-01-13 07:36:00,
2013-01-13 02:41:00,39.0,39.0,29.72,West,270,0.0,0.0,100,0.00,,,0.00,Rainwise IP-100,2013-01-13 07:41:00,
2013-01-13 02:46:00,40.0,40.0,29.72,West,270,0.0,0.0,100,0.00,,,0.00,Rainwise IP-100,2013-01-13 07:46:00,
2013-01-13 02:51:00,40.0,40.0,29.72,West,270,0.0,0.0,99,0.00,,,0.00,Rainwise IP-100,2013-01-13 07:51:00,
2013-01-13 02:56:00,40.0,40.0,29.72,West,270,0.0,0.0,100,0.00,,,0.00,Rainwise IP-100,2013-01-13 07:56:00,
2013-01-13 03:01:00,41.0,41.0,29.73,West,270,0.0,3.0,100,0.00,,,0.00,Rainwise IP-100,2013-01-13 08:01:00,
2013-01-13 03:06:00,40.0,40.0,29.73,West,270,0.0,3.0,100,0.00,,,0.00,Rainwise IP-100,2013-01-13 08:06:00,
2013-01-13 03:11:00,41.0,41.0,29.72,West,270,0.0,3.0,100,0.00,,,0.00,Rainwise IP-100,2013-01-13 08:11:00,
2013-01-13 03:16:00,41.0,41.0,29.72,West,270,0.0,0.0,100,0.00,,,0.00,Rainwise IP-100,2013-01-13 08:16:00,
2013-01-13 03:21:00,41.0,41.0,29.73,West,270,0.0,3.0,100,0.00,,,0.00,Rainwise IP-100,2013-01-13 08:21:00,
2013-01-13 03:26:00,41.0,41.0,29.73,West,270,3.0,4.0,100,0.00,,,0.00,Rainwise IP-100,2013-01-13 08:26:00,
2013-01-13 03:31:00,41.0,41.0,29.72,West,270,2.0,6.0,100,0.00,,,0.00,Rainwise IP-100,2013-01-13 08:31:00,
2013-01-13 03:36:00,41.0,41.0,29.72,West,270,4.0,5.0,100,0.00,,,0.00,Rainwise IP-100,2013-01-13 08:36:00,
2013-01-13 03:41:00,41.0,41.0,29.72,West,270,0.0,4.0,100,0.00,,,0.00,Rainwise IP-100,2013-01-13 08:41:00,
2013-01-13 03:46:00,41.0,41.0,29.72,West,270,0.0,2.0,100,0.00,,,0.00,Rainwise IP-100,2013-01-13 08:46:00,
2013-01-13 03:51:00,41.0,41.0,29.73,West,270,4.0,4.0,100,0.00,,,0.00,Rainwise IP-100,2013-01-13 08:51:00,
2013-01-13 03:54:00,41.0,41.0,29.73,West,270,3.0,6.0,100,0.00,,,0.00,Rainwise IP-100,2013-01-13 08:54:00,
2013-01-13 03:55:00,41.0,41.0,29.73,West,270,4.0,6.0,100,0.00,,,0.00,Rainwise IP-100,2013-01-13 08:55:00,
2013-01-13 03:56:00,41.0,41.0,29.73,West,270,3.0,6.0,100,0.00,,,0.00,Rainwise IP-100,2013-01-13 08:56:00,
2013-01-13 03:58:00,41.0,41.0,29.73,West,270,4.0,6.0,100,0.00,,,0.00,Rainwise IP-100,2013-01-13 08:58:00,
2013-01-13 04:00:00,41.0,41.0,29.73,West,270,5.0,6.0,100,0.00,,,0.00,Rainwise IP-100,2013-01-13 09:00:00,
2013-01-13 04:01:00,41.0,41.0,29.73,West,270,6.0,6.0,100,0.00,,,0.00,Rainwise IP-100,2013-01-13 09:01:00,
2013-01-13 04:02:00,41.0,41.0,29.73,West,270,6.0,6.0,100,0.00,,,0.00,Rainwise IP-100,2013-01-13 09:02:00,
2013-01-13 04:03:00,41.0,41.0,29.73,West,270,6.0,6.0,100,0.00,,,0.00,Rainwise IP-100,2013-01-13 09:03:00,
2013-01-13 04:06:00,41.0,41.0,29.73,West,270,3.0,6.0,100,0.00,,,0.00,Rainwise IP-100,2013-01-13 09:06:00,
2013-01-13 04:07:00,41.0,41.0,29.73,West,270,3.0,6.0,100,0.00,,,0.00,Rainwise IP-100,2013-01-13 09:07:00,
2013-01-13 04:08:00,41.0,41.0,29.73,West,270,5.0,6.0,100,0.00,,,0.00,Rainwise IP-100,2013-01-13 09:08:00,
2013-01-13 04:11:00,41.0,41.0,29.73,West,270,3.0,6.0,100,0.00,,,0.00,Rainwise IP-100,2013-01-13 09:11:00,
2013-01-13 04:13:00,42.0,42.0,29.72,West,270,5.0,5.0,100,0.00,,,0.00,Rainwise IP-100,2013-01-13 09:13:00,
2013-01-13 04:18:00,42.0,42.0,29.72,North,360,3.0,6.0,100,0.00,,,0.00,Rainwise IP-100,2013-01-13 09:18:00,
2013-01-13 04:23:00,42.0,42.0,29.71,West,270,4.0,6.0,100,0.00,,,0.00,Rainwise IP-100,2013-01-13 09:23:00,
2013-01-13 04:28:00,42.0,42.0,29.71,West,270,2.0,7.0,100,0.00,,,0.00,Rainwise IP-100,2013-01-13 09:28:00,
2013-01-13 04:33:00,42.0,42.0,29.73,West,270,4.0,10.0,100,0.06,,,0.01,Rainwise IP-100,2013-01-13 09:33:00,
2013-01-13 04:38:00,42.0,42.0,29.73,West,270,3.0,6.0,100,0.06,,,0.01,Rainwise IP-100,2013-01-13 09:38:00,
2013-01-13 04:43:00,42.0,42.0,29.72,West,270,3.0,8.0,100,0.00,,,0.01,Rainwise IP-100,2013-01-13 09:43:00,
2013-01-13 04:49:00,41.0,41.0,29.72,West,270,2.0,6.0,100,0.00,,,0.01,Rainwise IP-100,2013-01-13 09:49:00,
2013-01-13 04:50:00,41.0,41.0,29.72,West,270,2.0,6.0,100,0.00,,,0.01,Rainwise IP-100,2013-01-13 09:50:00,
2013-01-13 04:55:00,41.0,41.0,29.73,West,270,3.0,9.0,100,0.00,,,0.01,Rainwise IP-100,2013-01-13 09:55:00,
2013-01-13 05:00:00,41.0,41.0,29.73,West,270,3.0,8.0,100,0.00,,,0.01,Rainwise IP-100,2013-01-13 10:00:00,
2013-01-13 05:05:00,41.0,41.0,29.72,West,270,4.0,7.0,100,0.00,,,0.01,Rainwise IP-100,2013-01-13 10:05:00,
2013-01-13 05:10:00,41.0,41.0,29.72,WSW,247,0.0,4.0,100,0.00,,,0.01,Rainwise IP-100,2013-01-13 10:10:00,
2013-01-13 05:15:00,41.0,41.0,29.73,West,270,0.0,5.0,100,0.00,,,0.01,Rainwise IP-100,2013-01-13 10:15:00,
2013-01-13 05:20:00,41.0,41.0,29.73,West,270,1.0,4.0,100,0.00,,,0.01,Rainwise IP-100,2013-01-13 10:20:00,
2013-01-13 05:25:00,41.0,41.0,29.73,West,270,2.0,3.0,100,0.00,,,0.01,Rainwise IP-100,2013-01-13 10:25:00,
2013-01-13 05:30:00,41.0,41.0,29.73,West,270,0.0,3.0,100,0.00,,,0.01,Rainwise IP-100,2013-01-13 10:30:00,
2013-01-13 05:35:00,41.0,41.0,29.73,West,270,2.0,3.0,100,0.00,,,0.01,Rainwise IP-100,2013-01-13 10:35:00,
2013-01-13 05:40:00,41.0,41.0,29.73,West,270,3.0,4.0,100,0.00,,,0.01,Rainwise IP-100,2013-01-13 10:40:00,
2013-01-13 05:45:00,40.0,40.0,29.73,West,270,0.0,4.0,100,0.00,,,0.01,Rainwise IP-100,2013-01-13 10:45:00,
2013-01-13 05:50:00,40.0,40.0,29.73,West,270,0.0,0.0,100,0.00,,,0.01,Rainwise IP-100,2013-01-13 10:50:00,
2013-01-13 05:55:00,40.0,40.0,29.73,West,270,0.0,0.0,100,0.00,,,0.01,Rainwise IP-100,2013-01-13 10:55:00,
2013-01-13 06:00:00,40.0,40.0,29.73,ENE,67,2.0,3.0,100,0.00,,,0.01,Rainwise IP-100,2013-01-13 11:00:00,
2013-01-13 06:05:00,40.0,40.0,29.73,NNE,22,0.0,3.0,100,0.00,,,0.01,Rainwise IP-100,2013-01-13 11:05:00,
2013-01-13 06:10:00,40.0,40.0,29.73,NNE,22,0.0,0.0,100,0.00,,,0.01,Rainwise IP-100,2013-01-13 11:10:00,
2013-01-13 06:15:00,40.0,40.0,29.73,North,360,1.0,0.0,100,0.00,,,0.01,Rainwise IP-100,2013-01-13 11:15:00,
2013-01-13 06:20:00,40.0,40.0,29.73,North,360,1.0,3.0,100,0.00,,,0.01,Rainwise IP-100,2013-01-13 11:20:00,
2013-01-13 06:25:00,40.0,40.0,29.74,North,360,0.0,2.0,100,0.00,,,0.01,Rainwise IP-100,2013-01-13 11:25:00,
2013-01-13 06:30:00,40.0,40.0,29.74,North,360,0.0,0.0,100,0.00,,,0.01,Rainwise IP-100,2013-01-13 11:30:00,
2013-01-13 06:35:00,39.0,39.0,29.74,North,360,0.0,0.0,100,0.00,,,0.01,Rainwise IP-100,2013-01-13 11:35:00,
2013-01-13 06:40:00,40.0,40.0,29.74,North,360,0.0,0.0,100,0.00,,,0.01,Rainwise IP-100,2013-01-13 11:40:00,
2013-01-13 06:45:00,40.0,40.0,29.73,North,360,0.0,0.0,100,0.00,,,0.01,Rainwise IP-100,2013-01-13 11:45:00,
2013-01-13 06:50:00,39.0,39.0,29.73,North,360,0.0,0.0,100,0.00,,,0.01,Rainwise IP-100,2013-01-13 11:50:00,
2013-01-13 06:55:00,39.0,39.0,29.73,North,360,0.0,0.0,100,0.00,,,0.01,Rainwise IP-100,2013-01-13 11:55:00,
2013-01-13 07:00:00,39.0,39.0,29.73,North,360,0.0,0.0,100,0.00,,,0.01,Rainwise IP-100,2013-01-13 12:00:00,
2013-01-13 07:05:00,39.0,39.0,29.73,West,270,0.0,4.0,100,0.00,,,0.01,Rainwise IP-100,2013-01-13 12:05:00,
2013-01-13 07:10:00,38.0,38.0,29.73,West,270,0.0,0.0,100,0.00,,,0.01,Rainwise IP-100,2013-01-13 12:10:00,
2013-01-13 07:15:00,39.0,39.0,29.73,West,270,0.0,0.0,100,0.00,,,0.01,Rainwise IP-100,2013-01-13 12:15:00,
2013-01-13 07:20:00,39.0,39.0,29.73,North,360,0.0,0.0,100,0.00,,,0.01,Rainwise IP-100,2013-01-13 12:20:00,
2013-01-13 07:25:00,39.0,39.0,29.72,NE,45,0.0,3.0,100,0.00,,,0.01,Rainwise IP-100,2013-01-13 12:25:00,
2013-01-13 07:30:00,39.0,39.0,29.72,WSW,247,1.0,4.0,100,0.00,,,0.01,Rainwise IP-100,2013-01-13 12:30:00,
2013-01-13 07:35:00,39.0,39.0,29.72,South,180,0.0,4.0,100,0.00,,,0.01,Rainwise IP-100,2013-01-13 12:35:00,
2013-01-13 07:40:00,39.0,39.0,29.72,South,180,0.0,0.0,100,0.00,,,0.01,Rainwise IP-100,2013-01-13 12:40:00,
2013-01-13 07:45:00,39.0,39.0,29.72,SSE,157,3.0,3.0,100,0.00,,,0.01,Rainwise IP-100,2013-01-13 12:45:00,
2013-01-13 07:50:00,39.0,39.0,29.72,SW,225,2.0,4.0,100,0.00,,,0.01,Rainwise IP-100,2013-01-13 12:50:00,
2013-01-13 07:55:00,39.0,39.0,29.73,SW,225,0.0,3.0,100,0.00,,,0.01,Rainwise IP-100,2013-01-13 12:55:00,
2013-01-13 08:00:00,39.0,39.0,29.73,SW,225,0.0,2.0,100,0.00,,,0.01,Rainwise IP-100,2013-01-13 13:00:00,
2013-01-13 08:05:00,39.0,39.0,29.73,SW,225,2.0,3.0,100,0.00,,,0.01,Rainwise IP-100,2013-01-13 13:05:00,
2013-01-13 08:10:00,39.0,39.0,29.73,West,270,0.0,5.0,100,0.00,,,0.01,Rainwise IP-100,2013-01-13 13:10:00,
2013-01-13 08:15:00,40.0,40.0,29.73,West,270,2.0,3.0,100,0.00,,,0.01,Rainwise IP-100,2013-01-13 13:15:00,
2013-01-13 08:20:00,40.0,40.0,29.73,West,270,4.0,4.0,100,0.00,,,0.01,Rainwise IP-100,2013-01-13 13:20:00,
2013-01-13 08:25:00,40.0,40.0,29.75,West,270,0.0,4.0,100,0.00,,,0.01,Rainwise IP-100,2013-01-13 13:25:00,
2013-01-13 08:30:00,40.0,40.0,29.75,West,270,0.0,4.0,100,0.00,,,0.01,Rainwise IP-100,2013-01-13 13:30:00,
2013-01-13 08:35:00,40.0,40.0,29.75,West,270,3.0,5.0,100,0.00,,,0.01,Rainwise IP-100,2013-01-13 13:35:00,
2013-01-13 08:40:00,40.0,40.0,29.75,West,270,3.0,5.0,100,0.00,,,0.01,Rainwise IP-100,2013-01-13 13:40:00,
2013-01-13 08:45:00,40.0,40.0,29.75,West,270,4.0,9.0,100,0.00,,,0.01,Rainwise IP-100,2013-01-13 13:45:00,
2013-01-13 08:50:00,40.0,40.0,29.75,North,360,3.0,6.0,100,0.00,,,0.01,Rainwise IP-100,2013-01-13 13:50:00,
2013-01-13 08:55:00,41.0,41.0,29.75,West,270,4.0,7.0,100,0.00,,,0.01,Rainwise IP-100,2013-01-13 13:55:00,
2013-01-13 09:00:00,41.0,41.0,29.75,West,270,4.0,5.0,100,0.00,,,0.01,Rainwise IP-100,2013-01-13 14:00:00,
2013-01-13 09:05:00,41.0,41.0,29.74,West,270,0.0,4.0,100,0.00,,,0.01,Rainwise IP-100,2013-01-13 14:05:00,
2013-01-13 09:10:00,41.0,41.0,29.74,West,270,1.0,8.0,100,0.00,,,0.01,Rainwise IP-100,2013-01-13 14:10:00,
2013-01-13 09:15:00,41.0,41.0,29.75,West,270,1.0,7.0,100,0.00,,,0.01,Rainwise IP-100,2013-01-13 14:15:00,
2013-01-13 09:20:00,41.0,41.0,29.75,West,270,1.0,6.0,100,0.00,,,0.01,Rainwise IP-100,2013-01-13 14:20:00,
2013-01-13 09:25:00,41.0,41.0,29.75,West,270,3.0,6.0,100,0.00,,,0.01,Rainwise IP-100,2013-01-13 14:25:00,
2013-01-13 09:30:00,41.0,41.0,29.75,West,270,3.0,6.0,100,0.00,,,0.01,Rainwise IP-100,2013-01-13 14:30:00,
2013-01-13 09:35:00,41.0,41.0,29.74,SW,225,5.0,9.0,100,0.00,,,0.01,Rainwise IP-100,2013-01-13 14:35:00,
2013-01-13 09:40:00,41.0,41.0,29.74,SW,225,6.0,9.0,100,0.00,,,0.01,Rainwise IP-100,2013-01-13 14:40:00,
2013-01-13 09:45:00,41.0,41.0,29.74,West,270,0.0,8.0,100,0.00,,,0.01,Rainwise IP-100,2013-01-13 14:45:00,
2013-01-13 09:50:00,41.0,41.0,29.74,SSW,202,4.0,4.0,100,0.00,,,0.01,Rainwise IP-100,2013-01-13 14:50:00,
2013-01-13 09:55:00,41.0,41.0,29.75,West,270,3.0,5.0,100,0.00,,,0.01,Rainwise IP-100,2013-01-13 14:55:00,
2013-01-13 10:00:00,41.0,41.0,29.75,West,270,4.0,7.0,100,0.00,,,0.01,Rainwise IP-100,2013-01-13 15:00:00,
2013-01-13 10:05:00,41.0,41.0,29.74,West,270,4.0,6.0,100,0.00,,,0.01,Rainwise IP-100,2013-01-13 15:05:00,
2013-01-13 10:10:00,41.0,41.0,29.74,WSW,247,3.0,5.0,100,0.00,,,0.01,Rainwise IP-100,2013-01-13 15:10:00,
2013-01-13 10:15:00,41.0,41.0,29.75,West,270,3.0,5.0,100,0.00,,,0.01,Rainwise IP-100,2013-01-13 15:15:00,
2013-01-13 10:20:00,42.0,42.0,29.75,South,180,2.0,5.0,100,0.00,,,0.01,Rainwise IP-100,2013-01-13 15:20:00,
2013-01-13 10:25:00,42.0,42.0,29.74,West,270,5.0,6.0,100,0.00,,,0.01,Rainwise IP-100,2013-01-13 15:25:00,
2013-01-13 10:30:00,42.0,42.0,29.74,West,270,6.0,6.0,100,0.00,,,0.01,Rainwise IP-100,2013-01-13 15:30:00,
2013-01-13 10:35:00,42.0,42.0,29.74,West,270,6.0,6.0,100,0.00,,,0.01,Rainwise IP-100,2013-01-13 15:35:00,
2013-01-13 10:40:00,42.0,42.0,29.74,WSW,247,1.0,6.0,100,0.00,,,0.01,Rainwise IP-100,2013-01-13 15:40:00,
2013-01-13 10:45:00,42.0,42.0,29.74,WSW,247,4.0,5.0,100,0.00,,,0.01,Rainwise IP-100,2013-01-13 15:45:00,
2013-01-13 10:50:00,43.0,43.0,29.74,West,270,3.0,5.0,100,0.00,,,0.01,Rainwise IP-100,2013-01-13 15:50:00,
2013-01-13 10:55:00,42.0,42.0,29.73,SW,225,5.0,6.0,100,0.00,,,0.01,Rainwise IP-100,2013-01-13 15:55:00,
2013-01-13 11:00:00,42.0,42.0,29.73,SW,225,8.0,10.0,100,0.00,,,0.01,Rainwise IP-100,2013-01-13 16:00:00,
2013-01-13 11:05:00,42.0,42.0,29.73,West,270,8.0,12.0,100,0.00,,,0.01,Rainwise IP-100,2013-01-13 16:05:00,
2013-01-13 11:10:00,42.0,42.0,29.73,West,270,5.0,11.0,100,0.00,,,0.01,Rainwise IP-100,2013-01-13 16:10:00,
2013-01-13 11:15:00,42.0,42.0,29.73,West,270,6.0,10.0,100,0.00,,,0.01,Rainwise IP-100,2013-01-13 16:15:00,
2013-01-13 11:20:00,42.0,42.0,29.73,West,270,4.0,8.0,100,0.00,,,0.01,Rainwise IP-100,2013-01-13 16:20:00,
2013-01-13 11:25:00,42.0,42.0,29.72,West,270,4.0,9.0,100,0.00,,,0.01,Rainwise IP-100,2013-01-13 16:25:00,
2013-01-13 11:30:00,42.0,42.0,29.72,West,270,4.0,9.0,100,0.00,,,0.01,Rainwise IP-100,2013-01-13 16:30:00,
2013-01-13 11:35:00,42.0,42.0,29.72,West,270,10.0,10.0,100,0.00,,,0.01,Rainwise IP-100,2013-01-13 16:35:00,
2013-01-13 11:40:00,42.0,42.0,29.72,SW,225,1.0,11.0,100,0.00,,,0.01,Rainwise IP-100,2013-01-13 16:40:00,
2013-01-13 11:45:00,42.0,42.0,29.72,West,270,3.0,9.0,100,0.00,,,0.01,Rainwise IP-100,2013-01-13 16:45:00,
2013-01-13 11:50:00,42.0,42.0,29.72,West,270,6.0,6.0,100,0.00,,,0.01,Rainwise IP-100,2013-01-13 16:50:00,
2013-01-13 11:55:00,42.0,42.0,29.72,SW,225,3.0,8.0,100,0.00,,,0.01,Rainwise IP-100,2013-01-13 16:55:00,
2013-01-13 12:00:00,42.0,42.0,29.72,West,270,5.0,7.0,100,0.00,,,0.01,Rainwise IP-100,2013-01-13 17:00:00,
2013-01-13 12:05:00,42.0,42.0,29.71,SSW,202,0.0,6.0,100,0.00,,,0.01,Rainwise IP-100,2013-01-13 17:05:00,
2013-01-13 12:10:00,42.0,42.0,29.71,West,270,5.0,8.0,100,0.00,,,0.01,Rainwise IP-100,2013-01-13 17:10:00,
2013-01-13 12:15:00,42.0,42.0,29.71,WSW,247,5.0,9.0,100,0.00,,,0.01,Rainwise IP-100,2013-01-13 17:15:00,
2013-01-13 12:20:00,42.0,42.0,29.71,West,270,3.0,5.0,100,0.00,,,0.01,Rainwise IP-100,2013-01-13 17:20:00,
2013-01-13 12:25:00,42.0,42.0,29.70,West,270,3.0,5.0,100,0.00,,,0.01,Rainwise IP-100,2013-01-13 17:25:00,
2013-01-13 12:30:00,42.0,42.0,29.70,West,270,2.0,4.0,100,0.00,,,0.01,Rainwise IP-100,2013-01-13 17:30:00,
2013-01-13 12:35:00,42.0,42.0,29.71,WSW,247,3.0,5.0,100,0.00,,,0.01,Rainwise IP-100,2013-01-13 17:35:00,
2013-01-13 12:40:00,42.0,42.0,29.71,WSW,247,0.0,4.0,100,0.00,,,0.01,Rainwise IP-100,2013-01-13 17:40:00,
2013-01-13 12:45:00,43.0,43.0,29.69,WSW,247,1.0,1.0,100,0.00,,,0.01,Rainwise IP-100,2013-01-13 17:45:00,
2013-01-13 12:50:00,43.0,43.0,29.69,WSW,247,3.0,3.0,100,0.00,,,0.01,Rainwise IP-100,2013-01-13 17:50:00,
2013-01-13 12:55:00,42.0,42.0,29.70,WSW,247,0.0,5.0,100,0.00,,,0.01,Rainwise IP-100,2013-01-13 17:55:00,
2013-01-13 13:00:00,42.0,42.0,29.70,SW,225,3.0,3.0,100,0.00,,,0.01,Rainwise IP-100,2013-01-13 18:00:00,
2013-01-13 13:05:00,42.0,42.0,29.70,WSW,247,5.0,9.0,100,0.00,,,0.01,Rainwise IP-100,2013-01-13 18:05:00,
2013-01-13 13:10:00,42.0,42.0,29.70,West,270,3.0,5.0,100,0.00,,,0.01,Rainwise IP-100,2013-01-13 18:10:00,
2013-01-13 13:15:00,42.0,42.0,29.69,WSW,247,3.0,5.0,100,0.00,,,0.01,Rainwise IP-100,2013-01-13 18:15:00,
2013-01-13 13:20:00,43.0,43.0,29.69,WSW,247,1.0,3.0,100,0.00,,,0.01,Rainwise IP-100,2013-01-13 18:20:00,
2013-01-13 13:25:00,43.0,43.0,29.70,WSW,247,0.0,2.0,100,0.00,,,0.01,Rainwise IP-100,2013-01-13 18:25:00,
2013-01-13 13:30:00,43.0,43.0,29.70,West,270,4.0,5.0,100,0.00,,,0.01,Rainwise IP-100,2013-01-13 18:30:00,
2013-01-13 13:35:00,43.0,43.0,29.70,West,270,0.0,5.0,100,0.00,,,0.01,Rainwise IP-100,2013-01-13 18:35:00,
2013-01-13 13:40:00,43.0,43.0,29.70,WSW,247,1.0,4.0,100,0.00,,,0.01,Rainwise IP-100,2013-01-13 18:40:00,
2013-01-13 13:45:00,43.0,43.0,29.69,WSW,247,2.0,4.0,100,0.00,,,0.01,Rainwise IP-100,2013-01-13 18:45:00,
2013-01-13 13:50:00,43.0,43.0,29.69,SSE,157,3.0,4.0,100,0.00,,,0.01,Rainwise IP-100,2013-01-13 18:50:00,
2013-01-13 13:55:00,43.0,43.0,29.68,SSE,157,4.0,4.0,100,0.00,,,0.01,Rainwise IP-100,2013-01-13 18:55:00,
2013-01-13 14:00:00,43.0,43.0,29.68,SSE,157,3.0,4.0,100,0.00,,,0.01,Rainwise IP-100,2013-01-13 19:00:00,
2013-01-13 14:05:00,43.0,43.0,29.67,SW,225,4.0,6.0,100,0.00,,,0.01,Rainwise IP-100,2013-01-13 19:05:00,
2013-01-13 14:10:00,43.0,43.0,29.67,West,270,4.0,5.0,100,0.00,,,0.01,Rainwise IP-100,2013-01-13 19:10:00,
2013-01-13 14:15:00,43.0,43.0,29.69,WSW,247,0.0,10.0,100,0.00,,,0.01,Rainwise IP-100,2013-01-13 19:15:00,
2013-01-13 14:20:00,43.0,43.0,29.69,West,270,5.0,6.0,100,0.00,,,0.01,Rainwise IP-100,2013-01-13 19:20:00,
2013-01-13 14:25:00,43.0,43.0,29.69,West,270,3.0,6.0,100,0.00,,,0.01,Rainwise IP-100,2013-01-13 19:25:00,
2013-01-13 14:30:00,43.0,43.0,29.69,West,270,3.0,5.0,100,0.00,,,0.01,Rainwise IP-100,2013-01-13 19:30:00,
2013-01-13 14:35:00,43.0,43.0,29.69,WSW,247,3.0,6.0,100,0.00,,,0.01,Rainwise IP-100,2013-01-13 19:35:00,
2013-01-13 14:41:00,43.0,43.0,29.69,WSW,247,7.0,7.0,100,0.00,,,0.01,Rainwise IP-100,2013-01-13 19:41:00,
2013-01-13 14:46:00,44.0,44.0,29.69,West,270,5.0,8.0,100,0.00,,,0.01,Rainwise IP-100,2013-01-13 19:46:00,
2013-01-13 14:51:00,44.0,44.0,29.69,WSW,247,4.0,7.0,100,0.00,,,0.01,Rainwise IP-100,2013-01-13 19:51:00,
2013-01-13 14:56:00,44.0,44.0,29.69,West,270,1.0,7.0,100,0.00,,,0.01,Rainwise IP-100,2013-01-13 19:56:00,
2013-01-13 15:01:00,44.0,44.0,29.69,WSW,247,2.0,5.0,100,0.00,,,0.01,Rainwise IP-100,2013-01-13 20:01:00,
2013-01-13 15:06:00,44.0,44.0,29.67,SW,225,3.0,5.0,100,0.00,,,0.01,Rainwise IP-100,2013-01-13 20:06:00,
2013-01-13 15:11:00,44.0,44.0,29.67,West,270,5.0,7.0,100,0.00,,,0.01,Rainwise IP-100,2013-01-13 20:11:00,
2013-01-13 15:16:00,44.0,44.0,29.69,West,270,5.0,10.0,100,0.00,,,0.01,Rainwise IP-100,2013-01-13 20:16:00,
2013-01-13 15:21:00,44.0,44.0,29.69,West,270,4.0,9.0,100,0.00,,,0.01,Rainwise IP-100,2013-01-13 20:21:00,
2013-01-13 15:26:00,44.0,44.0,29.69,WSW,247,3.0,7.0,100,0.00,,,0.01,Rainwise IP-100,2013-01-13 20:26:00,
2013-01-13 15:31:00,44.0,44.0,29.69,WSW,247,3.0,10.0,100,0.00,,,0.01,Rainwise IP-100,2013-01-13 20:31:00,
2013-01-13 15:36:00,44.0,44.0,29.68,SW,225,3.0,6.0,100,0.00,,,0.01,Rainwise IP-100,2013-01-13 20:36:00,
2013-01-13 15:41:00,44.0,44.0,29.68,SW,225,4.0,7.0,100,0.00,,,0.01,Rainwise IP-100,2013-01-13 20:41:00,
2013-01-13 15:46:00,44.0,44.0,29.67,SW,225,7.0,8.0,100,0.00,,,0.01,Rainwise IP-100,2013-01-13 20:46:00,
2013-01-13 15:51:00,44.0,44.0,29.67,West,270,6.0,9.0,100,0.00,,,0.01,Rainwise IP-100,2013-01-13 20:51:00,
2013-01-13 15:56:00,44.0,44.0,29.67,SSW,202,5.0,9.0,100,0.00,,,0.01,Rainwise IP-100,2013-01-13 20:56:00,
2013-01-13 16:01:00,44.0,44.0,29.67,SSW,202,3.0,10.0,100,0.00,,,0.01,Rainwise IP-100,2013-01-13 21:01:00,
2013-01-13 16:06:00,44.0,44.0,29.65,SSW,202,4.0,7.0,100,0.00,,,0.01,Rainwise IP-100,2013-01-13 21:06:00,
2013-01-13 16:11:00,43.0,43.0,29.65,SW,225,4.0,7.0,100,0.00,,,0.01,Rainwise IP-100,2013-01-13 21:11:00,
2013-01-13 16:16:00,43.0,43.0,29.65,SSW,202,3.0,6.0,100,0.00,,,0.01,Rainwise IP-100,2013-01-13 21:16:00,
2013-01-13 16:21:00,43.0,43.0,29.65,SSE,157,2.0,5.0,100,0.00,,,0.01,Rainwise IP-100,2013-01-13 21:21:00,
2013-01-13 16:26:00,43.0,43.0,29.64,SE,135,0.0,5.0,100,0.00,,,0.01,Rainwise IP-100,2013-01-13 21:26:00,
2013-01-13 16:31:00,43.0,43.0,29.64,South,180,0.0,4.0,100,0.00,,,0.01,Rainwise IP-100,2013-01-13 21:31:00,
2013-01-13 16:36:00,43.0,43.0,29.65,SSE,157,1.0,4.0,100,0.00,,,0.01,Rainwise IP-100,2013-01-13 21:36:00,
2013-01-13 16:41:00,42.0,42.0,29.65,SE,135,3.0,4.0,100,0.00,,,0.01,Rainwise IP-100,2013-01-13 21:41:00,
2013-01-13 16:46:00,42.0,42.0,29.65,SE,135,0.0,3.0,100,0.00,,,0.01,Rainwise IP-100,2013-01-13 21:46:00,
2013-01-13 16:51:00,42.0,42.0,29.65,West,270,0.0,4.0,100,0.00,,,0.01,Rainwise IP-100,2013-01-13 21:51:00,
2013-01-13 16:56:00,42.0,42.0,29.64,South,180,0.0,2.0,100,0.00,,,0.01,Rainwise IP-100,2013-01-13 21:56:00,
2013-01-13 17:01:00,43.0,43.0,29.64,South,180,0.0,5.0,100,0.00,,,0.01,Rainwise IP-100,2013-01-13 22:01:00,
2013-01-13 17:06:00,42.0,42.0,29.63,South,180,3.0,4.0,100,0.00,,,0.01,Rainwise IP-100,2013-01-13 22:06:00,
2013-01-13 17:11:00,42.0,42.0,29.63,South,180,2.0,4.0,100,0.00,,,0.01,Rainwise IP-100,2013-01-13 22:11:00,
2013-01-13 17:16:00,42.0,42.0,29.63,SSE,157,3.0,5.0,100,0.00,,,0.01,Rainwise IP-100,2013-01-13 22:16:00,
2013-01-13 17:21:00,42.0,42.0,29.63,East,90,3.0,8.0,100,0.00,,,0.01,Rainwise IP-100,2013-01-13 22:21:00,
2013-01-13 17:26:00,42.0,42.0,29.63,SSE,157,6.0,6.0,100,0.00,,,0.01,Rainwise IP-100,2013-01-13 22:26:00,
2013-01-13 17:31:00,42.0,42.0,29.63,SW,225,3.0,6.0,100,0.00,,,0.01,Rainwise IP-100,2013-01-13 22:31:00,
2013-01-13 17:36:00,42.0,42.0,29.63,SE,135,2.0,7.0,100,0.00,,,0.01,Rainwise IP-100,2013-01-13 22:36:00,
2013-01-13 17:41:00,42.0,42.0,29.63,ESE,112,3.0,4.0,100,0.00,,,0.01,Rainwise IP-100,2013-01-13 22:41:00,
2013-01-13 17:46:00,43.0,43.0,29.63,ENE,67,2.0,3.0,100,0.00,,,0.01,Rainwise IP-100,2013-01-13 22:46:00,
2013-01-13 17:51:00,43.0,43.0,29.63,ENE,67,1.0,3.0,100,0.00,,,0.01,Rainwise IP-100,2013-01-13 22:51:00,
2013-01-13 17:56:00,43.0,43.0,29.63,SE,135,1.0,3.0,100,0.00,,,0.01,Rainwise IP-100,2013-01-13 22:56:00,
2013-01-13 18:01:00,43.0,43.0,29.63,South,180,0.0,2.0,100,0.00,,,0.01,Rainwise IP-100,2013-01-13 23:01:00,
2013-01-13 18:06:00,43.0,43.0,29.62,SW,225,2.0,8.0,100,0.00,,,0.01,Rainwise IP-100,2013-01-13 23:06:00,
2013-01-13 18:11:00,43.0,43.0,29.62,SW,225,0.0,3.0,100,0.00,,,0.01,Rainwise IP-100,2013-01-13 23:11:00,
2013-01-13 18:16:00,43.0,43.0,29.63,WSW,247,4.0,7.0,100,0.00,,,0.01,Rainwise IP-100,2013-01-13 23:16:00,
2013-01-13 18:21:00,44.0,44.0,29.63,West,270,2.0,5.0,100,0.00,,,0.01,Rainwise IP-100,2013-01-13 23:21:00,
2013-01-13 18:26:00,44.0,44.0,29.63,SW,225,0.0,8.0,100,0.00,,,0.01,Rainwise IP-100,2013-01-13 23:26:00,
2013-01-13 18:31:00,44.0,44.0,29.63,SW,225,3.0,7.0,100,0.00,,,0.01,Rainwise IP-100,2013-01-13 23:31:00,
2013-01-13 18:36:00,44.0,44.0,29.64,West,270,5.0,10.0,100,0.00,,,0.01,Rainwise IP-100,2013-01-13 23:36:00,
2013-01-13 18:41:00,44.0,44.0,29.64,SW,225,0.0,6.0,100,0.00,,,0.01,Rainwise IP-100,2013-01-13 23:41:00,
2013-01-13 18:46:00,44.0,44.0,29.64,West,270,5.0,7.0,100,0.00,,,0.01,Rainwise IP-100,2013-01-13 23:46:00,
2013-01-13 18:51:00,44.0,44.0,29.64,West,270,1.0,6.0,100,0.00,,,0.01,Rainwise IP-100,2013-01-13 23:51:00,
2013-01-13 18:56:00,44.0,44.0,29.63,West,270,5.0,6.0,100,0.00,,,0.01,Rainwise IP-100,2013-01-13 23:56:00,
2013-01-13 19:01:00,44.0,44.0,29.63,West,270,8.0,9.0,100,0.00,,,0.01,Rainwise IP-100,2013-01-14 00:01:00,
2013-01-13 19:06:00,44.0,44.0,29.64,WSW,247,1.0,8.0,100,0.00,,,0.01,Rainwise IP-100,2013-01-14 00:06:00,
2013-01-13 19:11:00,44.0,44.0,29.64,West,270,5.0,10.0,100,0.00,,,0.01,Rainwise IP-100,2013-01-14 00:11:00,
2013-01-13 19:16:00,44.0,44.0,29.63,West,270,1.0,10.0,100,0.00,,,0.01,Rainwise IP-100,2013-01-14 00:16:00,
2013-01-13 19:21:00,44.0,44.0,29.63,WSW,247,3.0,7.0,100,0.00,,,0.01,Rainwise IP-100,2013-01-14 00:21:00,
2013-01-13 19:26:00,44.0,44.0,29.63,SW,225,1.0,8.0,100,0.00,,,0.01,Rainwise IP-100,2013-01-14 00:26:00,
2013-01-13 19:31:00,44.0,44.0,29.63,West,270,0.0,9.0,100,0.00,,,0.01,Rainwise IP-100,2013-01-14 00:31:00,
2013-01-13 19:36:00,45.0,45.0,29.61,SW,225,4.0,8.0,100,0.00,,,0.01,Rainwise IP-100,2013-01-14 00:36:00,
2013-01-13 19:41:00,45.0,45.0,29.61,West,270,3.0,4.0,100,0.00,,,0.01,Rainwise IP-100,2013-01-14 00:41:00,
2013-01-13 19:46:00,45.0,45.0,29.62,WSW,247,1.0,9.0,100,0.00,,,0.01,Rainwise IP-100,2013-01-14 00:46:00,
2013-01-13 19:47:00,45.0,45.0,29.62,WSW,247,2.0,9.0,100,0.00,,,0.01,Rainwise IP-100,2013-01-14 00:47:00,
2013-01-13 19:48:00,45.0,45.0,29.62,WSW,247,2.0,9.0,100,0.00,,,0.01,Rainwise IP-100,2013-01-14 00:48:00,
2013-01-13 19:51:00,45.0,45.0,29.62,WSW,247,2.0,2.0,100,0.00,,,0.01,Rainwise IP-100,2013-01-14 00:51:00,
2013-01-13 19:56:00,45.0,45.0,29.61,SW,225,3.0,5.0,100,0.00,,,0.01,Rainwise IP-100,2013-01-14 00:56:00,
2013-01-13 20:01:00,45.0,45.0,29.61,WSW,247,6.0,6.0,100,0.00,,,0.01,Rainwise IP-100,2013-01-14 01:01:00,
2013-01-13 20:06:00,45.0,45.0,29.61,SW,225,6.0,10.0,100,0.00,,,0.01,Rainwise IP-100,2013-01-14 01:06:00,
2013-01-13 20:11:00,45.0,45.0,29.61,SW,225,4.0,9.0,100,0.00,,,0.01,Rainwise IP-100,2013-01-14 01:11:00,
2013-01-13 20:16:00,45.0,45.0,29.61,SW,225,4.0,9.0,100,0.00,,,0.01,Rainwise IP-100,2013-01-14 01:16:00,
2013-01-13 20:21:00,45.0,45.0,29.61,West,270,4.0,7.0,100,0.00,,,0.01,Rainwise IP-100,2013-01-14 01:21:00,
2013-01-13 20:26:00,45.0,45.0,29.61,West,270,4.0,7.0,100,0.00,,,0.01,Rainwise IP-100,2013-01-14 01:26:00,
2013-01-13 20:31:00,45.0,45.0,29.60,SW,225,5.0,9.0,100,0.00,,,0.01,Rainwise IP-100,2013-01-14 01:31:00,
2013-01-13 20:36:00,45.0,45.0,29.60,SW,225,6.0,11.0,100,0.00,,,0.01,Rainwise IP-100,2013-01-14 01:36:00,
2013-01-13 20:41:00,45.0,45.0,29.61,SW,225,3.0,11.0,100,0.00,,,0.01,Rainwise IP-100,2013-01-14 01:41:00,
2013-01-13 20:46:00,45.0,45.0,29.61,West,270,6.0,9.0,100,0.00,,,0.01,Rainwise IP-100,2013-01-14 01:46:00,
2013-01-13 20:51:00,45.0,45.0,29.61,West,270,5.0,11.0,100,0.06,,,0.02,Rainwise IP-100,2013-01-14 01:51:00,
2013-01-13 20:56:00,45.0,45.0,29.60,SW,225,9.0,11.0,100,0.06,,,0.02,Rainwise IP-100,2013-01-14 01:56:00,
2013-01-13 21:01:00,46.0,46.0,29.60,SW,225,7.0,10.0,100,0.00,,,0.02,Rainwise IP-100,2013-01-14 02:01:00,
2013-01-13 21:06:00,45.0,45.0,29.60,SW,225,8.0,10.0,100,0.00,,,0.02,Rainwise IP-100,2013-01-14 02:06:00,
2013-01-13 21:11:00,46.0,46.0,29.60,SW,225,8.0,11.0,100,0.00,,,0.02,Rainwise IP-100,2013-01-14 02:11:00,
2013-01-13 21:16:00,46.0,46.0,29.60,SW,225,3.0,11.0,100,0.00,,,0.02,Rainwise IP-100,2013-01-14 02:16:00,
2013-01-13 21:21:00,46.0,46.0,29.60,WSW,247,5.0,9.0,100,0.00,,,0.02,Rainwise IP-100,2013-01-14 02:21:00,
2013-01-13 21:26:00,46.0,46.0,29.60,SSW,202,4.0,10.0,100,0.00,,,0.02,Rainwise IP-100,2013-01-14 02:26:00,
2013-01-13 21:31:00,46.0,46.0,29.59,West,270,5.0,6.0,100,0.00,,,0.02,Rainwise IP-100,2013-01-14 02:31:00,
2013-01-13 21:36:00,46.0,46.0,29.59,SW,225,3.0,8.0,100,0.00,,,0.02,Rainwise IP-100,2013-01-14 02:36:00,
2013-01-13 21:41:00,46.0,46.0,29.59,SW,225,3.0,10.0,100,0.00,,,0.02,Rainwise IP-100,2013-01-14 02:41:00,
2013-01-13 21:46:00,46.0,46.0,29.59,West,270,9.0,9.0,100,0.00,,,0.02,Rainwise IP-100,2013-01-14 02:46:00,
2013-01-13 21:51:00,46.0,46.0,29.58,West,270,9.0,9.0,100,0.00,,,0.02,Rainwise IP-100,2013-01-14 02:51:00,
2013-01-13 21:56:00,46.0,46.0,29.58,SW,225,5.0,11.0,100,0.00,,,0.02,Rainwise IP-100,2013-01-14 02:56:00,
2013-01-13 22:01:00,47.0,47.0,29.59,West,270,5.0,17.0,100,0.00,,,0.02,Rainwise IP-100,2013-01-14 03:01:00,
2013-01-13 22:06:00,46.0,46.0,29.59,South,180,3.0,9.0,100,0.00,,,0.02,Rainwise IP-100,2013-01-14 03:06:00,
2013-01-13 22:11:00,47.0,47.0,29.59,West,270,7.0,9.0,100,0.00,,,0.02,Rainwise IP-100,2013-01-14 03:11:00,
2013-01-13 22:16:00,46.0,46.0,29.59,SW,225,6.0,9.0,100,0.00,,,0.02,Rainwise IP-100,2013-01-14 03:16:00,
2013-01-13 22:21:00,47.0,47.0,29.59,SW,225,4.0,8.0,100,0.00,,,0.02,Rainwise IP-100,2013-01-14 03:21:00,
2013-01-13 22:26:00,46.0,46.0,29.59,WSW,247,6.0,9.0,100,0.00,,,0.02,Rainwise IP-100,2013-01-14 03:26:00,
2013-01-13 22:31:00,47.0,47.0,29.59,SW,225,3.0,10.0,100,0.00,,,0.02,Rainwise IP-100,2013-01-14 03:31:00,
2013-01-13 22:36:00,47.0,47.0,29.59,WSW,247,3.0,10.0,100,0.00,,,0.02,Rainwise IP-100,2013-01-14 03:36:00,
2013-01-13 22:41:00,47.0,47.0,29.59,West,270,2.0,10.0,100,0.00,,,0.02,Rainwise IP-100,2013-01-14 03:41:00,
2013-01-13 22:46:00,47.0,47.0,29.60,WSW,247,4.0,7.0,100,0.00,,,0.02,Rainwise IP-100,2013-01-14 03:46:00,
2013-01-13 22:51:00,47.0,47.0,29.59,SW,225,2.0,6.0,100,0.00,,,0.02,Rainwise IP-100,2013-01-14 03:51:00,
2013-01-13 22:56:00,47.0,47.0,29.59,SSW,202,1.0,6.0,100,0.00,,,0.02,Rainwise IP-100,2013-01-14 03:56:00,
2013-01-13 23:01:00,47.0,47.0,29.58,SW,225,5.0,8.0,100,0.00,,,0.02,Rainwise IP-100,2013-01-14 04:01:00,
2013-01-13 23:06:00,46.0,46.0,29.58,SW,225,5.0,8.0,100,0.00,,,0.02,Rainwise IP-100,2013-01-14 04:06:00,
2013-01-13 23:11:00,46.0,46.0,29.58,SW,225,5.0,6.0,100,0.00,,,0.02,Rainwise IP-100,2013-01-14 04:11:00,
2013-01-13 23:16:00,46.0,46.0,29.58,SW,225,3.0,8.0,100,0.00,,,0.02,Rainwise IP-100,2013-01-14 04:16:00,
2013-01-13 23:21:00,47.0,47.0,29.57,SW,225,4.0,10.0,100,0.00,,,0.02,Rainwise IP-100,2013-01-14 04:21:00,
2013-01-13 23:26:00,46.0,46.0,29.57,WSW,247,4.0,9.0,100,0.00,,,0.02,Rainwise IP-100,2013-01-14 04:26:00,
2013-01-13 23:31:00,47.0,47.0,29.57,SW,225,3.0,6.0,100,0.00,,,0.02,Rainwise IP-100,2013-01-14 04:31:00,
2013-01-13 23:36:00,46.0,46.0,29.57,WSW,247,7.0,8.0,100,0.00,,,0.02,Rainwise IP-100,2013-01-14 04:36:00,
2013-01-13 23:41:00,47.0,47.0,29.57,SSW,202,6.0,10.0,100,0.00,,,0.02,Rainwise IP-100,2013-01-14 04:41:00,
2013-01-13 23:46:00,47.0,47.0,29.57,West,270,10.0,11.0,100,0.00,,,0.02,Rainwise IP-100,2013-01-14 04:46:00,
2013-01-13 23:51:00,47.0,47.0,29.58,West,270,8.0,13.0,100,0.00,,,0.02,Rainwise IP-100,2013-01-14 04:51:00,
2013-01-13 23:56:00,47.0,47.0,29.58,SW,225,8.0,13.0,100,0.00,,,0.02,Rainwise IP-100,2013-01-14 04:56:00,